[[{"header":{"parameterUnit":"m.s-1","parameterCategory":2,"la1":30.2991,"la2":30.254,"lo1":-89.0895,"lo2":-89.0444,"dy":0.0017,"dx":0.0017,"nx":28,"ny":28,"refTime":"2025-03-12T09:00:00:Z","depth":"0","parameterNumber":2,"parameterNumberName":"U-component_of_CURRENTS"},"data":[0,0,0,0,0,0,0,0,0,0,0,0,0,0,0,0,0,0,0,0,0,0,0,0,0,0,0,0,0,0,0,0,0,0,0,0,0,0,0,0,0,0,0,0,0,0,0,0,0,0,0,0,0,0,0,0,0,0,-0.2118,-0.2119,0,-0.2165,-0.2165,-0.2165,-0.2133,-0.2132,-0.2131,-0.213,-0.2094,-0.2094,-0.2094,0,0,0,0,0,0,0,0,0,0,0,0,0,-0.2017,-0.2019,-0.2118,-0.2119,-0.212,-0.2165,-0.2165,-0.2166,-0.2133,-0.2132,-0.213,-0.2129,-0.2094,-0.2094,-0.2094,0,0,0,0,0,0,0,0,0,0,0,0,0,-0.2058,-0.2019,-0.2118,-0.2112,-0.2113,-0.2165,-0.2165,-0.2166,-0.2133,-0.2132,-0.213,-0.2129,-0.2094,-0.2094,-0.2094,-0.2127,0,0,-0.2094,-0.2094,0,0,0,0,0,0,0,0,-0.2056,-0.2061,-0.2112,-0.2113,-0.2113,-0.2145,-0.2117,-0.215,-0.2134,-0.2121,-0.213,-0.2128,-0.2107,-0.2106,-0.2114,-0.2126,-0.2124,-0.2094,-0.2095,-0.2095,-0.2095,0,0,0,0,0,0,0,-0.2053,-0.2059,-0.2132,-0.2114,-0.2114,-0.2114,-0.2117,-0.2123,-0.2118,-0.2122,-0.2121,-0.2133,-0.2106,-0.2114,-0.2113,-0.2123,-0.2094,-0.2095,-0.2095,-0.2095,-0.2155,-0.2156,0,0,0,0,0,0,-0.2057,-0.2057,-0.2131,-0.2134,-0.2085,-0.2117,-0.2121,-0.2133,-0.212,-0.2118,-0.2135,-0.2132,-0.2115,-0.2113,-0.2111,-0.2125,-0.2095,-0.2095,-0.2095,-0.2153,-0.2155,-0.2157,0,0,0,0,0,0,-0.2055,-0.2063,-0.2129,-0.21,-0.2108,-0.2121,-0.2135,-0.2135,-0.2135,-0.2131,-0.2126,-0.2134,-0.2113,-0.2111,-0.2119,-0.2124,-0.2095,-0.2095,-0.2152,-0.2154,-0.2156,-0.2167,0,0,0,0,0,0,-0.2052,-0.2062,-0.207,-0.21,-0.211,-0.2156,-0.2137,-0.2137,-0.2148,-0.2144,-0.2129,-0.2125,-0.2112,-0.212,-0.212,-0.2123,-0.2095,-0.215,-0.2153,-0.2155,-0.2165,-0.217,-0.2174,0,0,0,0,0,-0.2048,-0.2063,-0.207,-0.2079,-0.2121,-0.2158,-0.2162,-0.2162,-0.2149,-0.2154,-0.2149,-0.2125,-0.2138,-0.2121,-0.2121,-0.2124,-0.2148,-0.2152,-0.2155,-0.2163,-0.2169,-0.2174,0,0,0,0,0,0,-0.2021,-0.2063,-0.207,-0.2096,-0.2125,-0.2153,-0.2162,-0.2166,-0.2168,-0.2159,-0.2144,-0.2141,-0.2149,-0.2147,-0.2129,-0.2155,-0.214,-0.2143,-0.2146,-0.2151,-0.2155,-0.214,-0.2095,0,0,0,0,0,-0.2023,-0.2037,-0.2084,-0.2099,-0.2119,-0.2142,-0.2155,-0.2161,-0.2172,-0.2171,-0.2165,-0.2164,-0.2169,-0.2166,-0.2171,-0.2187,-0.2159,-0.2192,-0.2196,-0.22,-0.219,-0.2168,-0.2168,-0.2168,-0.2168,-0.2168,0,0,-0.2014,-0.204,-0.2046,-0.2094,-0.2114,-0.2148,-0.2144,-0.2168,-0.2185,-0.2168,-0.2179,-0.2178,-0.2178,-0.2192,-0.2196,-0.2185,-0.2186,-0.2204,-0.2207,-0.2195,-0.2172,-0.2171,-0.2171,-0.2171,-0.217,-0.217,0,0,-0.2008,-0.2032,-0.2048,-0.208,-0.2123,-0.2145,-0.2154,-0.219,-0.2192,-0.2217,-0.2205,-0.2206,-0.2223,-0.2216,-0.2216,-0.2253,-0.2211,-0.2262,-0.2265,-0.2244,-0.2243,-0.2241,-0.2196,-0.2191,-0.2262,-0.2262,-0.2262,0,-0.1998,-0.2034,-0.2057,-0.2091,-0.2121,-0.2145,-0.218,-0.2194,-0.2223,-0.2227,-0.2221,-0.2237,-0.2231,-0.2238,-0.2248,-0.2257,-0.2233,-0.2239,-0.2246,-0.2244,-0.2242,-0.2196,-0.219,-0.2263,-0.2263,-0.2263,-0.2263,0,-0.2013,-0.2048,-0.2064,-0.2114,-0.2143,-0.2179,-0.2217,-0.2232,-0.2242,-0.2253,-0.2263,-0.2262,-0.2263,-0.227,-0.2266,-0.2261,-0.2243,-0.2251,-0.2222,-0.2242,-0.2194,-0.2187,-0.2265,-0.2264,-0.2264,-0.2264,0,0,-0.1978,-0.2062,-0.2066,-0.2101,-0.2166,-0.2192,-0.2223,-0.2261,-0.2271,-0.2284,-0.2293,-0.2297,-0.2284,-0.2284,-0.2279,-0.2263,-0.2225,-0.2252,-0.225,-0.2188,-0.2159,-0.2014,-0.1992,-0.2234,-0.2233,-0.2232,-0.2125,0,-0.199,-0.2059,-0.2094,-0.2152,-0.2199,-0.2234,-0.226,-0.2285,-0.2302,-0.2314,-0.2304,-0.2309,-0.2294,-0.2291,-0.2272,-0.2248,-0.221,-0.2252,-0.2165,-0.2162,-0.2015,-0.1981,-0.1823,-0.1703,-0.2118,-0.2117,-0.2116,0,-0.1996,-0.2049,-0.2114,-0.2189,-0.221,-0.2237,-0.2283,-0.2309,-0.2326,-0.2335,-0.2329,-0.2323,-0.23,-0.2289,-0.222,-0.2249,-0.2195,-0.2168,-0.2164,-0.2016,-0.2004,-0.1755,-0.1674,-0.1619,-0.2105,-0.2106,-0.2106,0,-0.1967,-0.2058,-0.2111,-0.2141,-0.2225,-0.2243,-0.2276,-0.2306,-0.2318,-0.2338,-0.2335,-0.2322,-0.2294,-0.2251,-0.2173,-0.2201,-0.2085,-0.2119,-0.1931,-0.192,-0.1759,-0.1734,-0.1593,-0.2049,-0.2049,-0.205,-0.205,0,-0.1973,-0.2009,-0.2101,-0.2131,-0.2177,-0.2231,-0.226,-0.2289,-0.2314,-0.2305,-0.2328,-0.2299,-0.2282,-0.2215,-0.2165,-0.1997,-0.2065,-0.1901,-0.1874,-0.1758,-0.1736,-0.1659,-0.1732,-0.2046,-0.2046,-0.2047,-0.2048,0,-0.1923,-0.199,-0.205,-0.2142,-0.2165,-0.2189,-0.2245,-0.2254,-0.2285,-0.2273,-0.2271,-0.2264,-0.2165,-0.2115,-0.2028,-0.1944,-0.1777,-0.1761,-0.1607,-0.1561,-0.1329,-0.1411,-0.1308,-0.1278,-0.1538,-0.1534,-0.153,0,-0.1903,-0.1931,-0.2036,-0.2058,-0.2095,-0.2141,-0.2161,-0.2225,-0.2229,-0.2226,-0.2203,-0.2128,-0.202,-0.1832,-0.1694,-0.1538,-0.1591,-0.1306,-0.1323,-0.1254,-0.1328,-0.1423,-0.1416,-0.1122,-0.1115,-0.111,-0.1105,0,-0.1838,-0.1872,-0.1914,-0.1982,-0.2015,-0.2056,-0.209,-0.2093,-0.2135,-0.2096,-0.201,-0.1924,-0.1738,-0.1456,-0.1261,-0.1199,-0.1256,-0.1184,-0.116,-0.1009,-0.106,-0.1036,-0.126,-0.1056,-0.1061,-0.1065,-0.1067,-0.1069,-0.1748,-0.1765,-0.1815,-0.1851,-0.191,-0.1926,-0.1883,-0.1902,-0.1854,-0.1705,-0.1749,-0.1464,-0.1182,-0.0869,-0.0868,-0.0677,-0.0883,-0.0606,-0.0716,-0.082,-0.0769,-0.0858,-0.0599,-0.0601,-0.0603,-0.0605,-0.0606,0,-0.1601,-0.1623,-0.1671,-0.1703,-0.1708,-0.1783,-0.1782,-0.1676,-0.1532,-0.138,-0.1214,-0.0728,-0.0436,-0.0306,-0.0087,-0.0134,-0.0277,-0.0219,-0.0332,-0.0353,-0.0423,-0.0376,0.0002,0.0002,0.0002,0.0002,0.0002,0.0002,-0.1514,-0.1491,-0.1522,-0.1468,-0.149,-0.1396,-0.1352,-0.121,-0.1056,-0.0657,-0.0314,-0.0146,0.0074,0.0244,0.0255,0.0155,0.0002,-0.0048,-0.0177,-0.0229,-0.0275,-0.0318,-0.0283,0.0108,0.0108,-0.0012,-0.0013,-0.0014]},{"header":{"parameterUnit":"m.s-1","parameterCategory":2,"la1":30.2991,"la2":30.254,"lo1":-89.0895,"lo2":-89.0444,"dy":0.0017,"dx":0.0017,"nx":28,"ny":28,"refTime":"2025-03-12T09:00:00:Z","depth":"0","parameterNumber":3,"parameterNumberName":"V-component_of_CURRENTS"},"data":[0,0,0,0,0,0,0,0,0,0,0,0,0,0,0,0,0,0,0,0,0,0,0,0,0,0,0,0,0,0,0,0,0,0,0,0,0,0,0,0,0,0,0,0,0,0,0,0,0,0,0,0,0,0,0,0,0,0,0.0154,0.0154,0,0.0146,0.0146,0.0146,0.0162,0.0163,0.0163,0.0164,0.016,0.0159,0.0158,0,0,0,0,0,0,0,0,0,0,0,0,0,0.0218,0.0217,0.0154,0.0154,0.0154,0.0146,0.0146,0.0146,0.0162,0.0163,0.0163,0.0164,0.016,0.0159,0.0158,0,0,0,0,0,0,0,0,0,0,0,0,0,0.0198,0.0216,0.0154,0.0161,0.0161,0.0146,0.0146,0.0146,0.0162,0.0163,0.0163,0.0164,0.016,0.0159,0.0158,0.0138,0,0,0.0156,0.0155,0,0,0,0,0,0,0,0,0.0199,0.0196,0.016,0.016,0.0161,0.0156,0.0167,0.0143,0.0162,0.0162,0.0164,0.0164,0.0158,0.0157,0.0154,0.0138,0.0137,0.0156,0.0155,0.0155,0.0154,0,0,0,0,0,0,0,0.0201,0.0197,0.0151,0.016,0.016,0.0176,0.0174,0.0163,0.0156,0.0162,0.0163,0.0162,0.0158,0.0155,0.0154,0.0137,0.0156,0.0155,0.0154,0.0154,0.0129,0.0129,0,0,0,0,0,0,0.0198,0.0197,0.0151,0.0151,0.0182,0.0174,0.0172,0.0157,0.0156,0.0157,0.0161,0.0162,0.0156,0.0155,0.0154,0.0143,0.0155,0.0154,0.0153,0.0129,0.0129,0.0129,0,0,0,0,0,0,0.0199,0.0193,0.0152,0.0175,0.0171,0.0172,0.0155,0.0156,0.0157,0.0155,0.0156,0.0162,0.0157,0.0156,0.0137,0.0143,0.0153,0.0153,0.0129,0.0129,0.0129,0.0113,0,0,0,0,0,0,0.0201,0.0194,0.0182,0.0174,0.0169,0.0135,0.0155,0.0156,0.0155,0.0157,0.0156,0.0156,0.0157,0.0139,0.0137,0.0142,0.0152,0.0129,0.0129,0.0129,0.0113,0.0112,0.0111,0,0,0,0,0,0.0203,0.0175,0.0181,0.0176,0.0153,0.0134,0.0133,0.0138,0.0154,0.0144,0.0144,0.0156,0.0137,0.0137,0.0135,0.014,0.0129,0.0129,0.0129,0.0114,0.0112,0.0111,0,0,0,0,0,0,0.0192,0.0174,0.0181,0.0148,0.0143,0.0137,0.0126,0.0137,0.013,0.0135,0.0141,0.014,0.0131,0.0133,0.0134,0.0133,0.014,0.0139,0.013,0.0128,0.0127,0.0125,0.0151,0,0,0,0,0,0.0186,0.0161,0.0155,0.0129,0.0125,0.0129,0.0125,0.013,0.0124,0.0123,0.0124,0.0127,0.0127,0.0124,0.012,0.0109,0.0107,0.0116,0.0115,0.0114,0.0111,0.012,0.0119,0.0127,0.0127,0.0127,0,0,0.0174,0.0161,0.0147,0.0125,0.0122,0.0104,0.0128,0.0115,0.0106,0.0122,0.0106,0.0117,0.0122,0.0113,0.0111,0.0116,0.0104,0.0113,0.0112,0.011,0.012,0.0119,0.0118,0.0127,0.0127,0.0127,0,0,0.0138,0.0127,0.0101,0.0092,0.0085,0.0084,0.0082,0.0079,0.0085,0.0068,0.0088,0.0101,0.0086,0.0102,0.0106,0.0094,0.0096,0.0097,0.0088,0.0097,0.0096,0.0096,0.0067,0.0064,0.0098,0.0098,0.0098,0,0.0127,0.0091,0.0091,0.0067,0.0058,0.0074,0.0052,0.0052,0.0046,0.0052,0.0058,0.007,0.0083,0.009,0.0093,0.0093,0.0081,0.0094,0.0095,0.0095,0.0095,0.0066,0.0063,0.0097,0.0097,0.0097,0.0097,0,0.0078,0.0052,0.0034,0.0009,0.0,-0.0021,-0.0015,-0.0017,-0.0004,0.0006,0.0016,0.0035,0.0047,0.0062,0.0072,0.0085,0.007,0.0091,0.0099,0.0093,0.0062,0.006,0.0096,0.0096,0.0096,0.0097,0,0,0.0045,0.0007,0.0001,-0.0015,-0.003,-0.0045,-0.0057,-0.0059,-0.006,-0.0046,-0.0046,-0.0015,0.0015,0.0023,0.0051,0.0069,0.0061,0.0078,0.0079,0.0048,0.0046,0.0115,0.0119,0.0081,0.0081,0.0082,0.0015,0,0.0008,-0.0049,-0.0052,-0.0097,-0.0123,-0.0109,-0.0122,-0.0116,-0.0105,-0.0105,-0.0058,-0.005,-0.0007,0.0006,0.003,0.0055,0.0057,0.0075,0.0058,0.0057,0.0119,0.012,0.0209,0.0166,0.0013,0.0012,0.0012,0,-0.0035,-0.0068,-0.012,-0.0148,-0.0155,-0.0172,-0.018,-0.0187,-0.0169,-0.0156,-0.0128,-0.0101,-0.0068,-0.0031,0.0,0.0006,0.0022,0.0041,0.0039,0.0111,0.0124,0.0153,0.0167,0.0259,0.0008,0.0008,0.0008,0,-0.0065,-0.0113,-0.0156,-0.0169,-0.0198,-0.0204,-0.0208,-0.0198,-0.0201,-0.0184,-0.0188,-0.0146,-0.0135,-0.0096,-0.0045,-0.003,-0.0025,0.0001,0.0068,0.007,0.0149,0.016,0.0255,0.0014,0.0014,0.0014,0.0015,0,-0.0108,-0.0138,-0.0172,-0.0199,-0.0233,-0.0232,-0.0253,-0.0247,-0.0243,-0.0249,-0.0211,-0.0215,-0.0147,-0.013,-0.0081,-0.0016,-0.0055,0.0064,0.007,0.0144,0.0155,0.0241,0.0236,0.0012,0.0012,0.0013,0.0013,0,-0.0126,-0.0158,-0.0208,-0.0244,-0.0253,-0.0272,-0.0286,-0.0297,-0.0287,-0.0299,-0.0296,-0.0278,-0.025,-0.0194,-0.0146,-0.0061,0.0054,0.0021,0.0088,0.0107,0.0297,0.0286,0.0315,0.0385,0.0091,0.0093,0.0094,0,-0.0131,-0.0167,-0.0235,-0.0266,-0.028,-0.0305,-0.0321,-0.0318,-0.0326,-0.0335,-0.0345,-0.0333,-0.0303,-0.0214,-0.0081,0.0011,0.0066,0.0166,0.0244,0.0327,0.0317,0.0294,0.035,0.0311,0.0314,0.0317,0.0319,0,-0.0132,-0.0167,-0.0209,-0.028,-0.0315,-0.0349,-0.0366,-0.0378,-0.0372,-0.0356,-0.0344,-0.0322,-0.0255,-0.0089,0.004,0.0112,0.026,0.0222,0.03,0.0498,0.0483,0.0549,0.0298,0.034,0.0338,0.0337,0.0336,0.0335,-0.0111,-0.0149,-0.0214,-0.0271,-0.0326,-0.0361,-0.0349,-0.0348,-0.0325,-0.0216,-0.0256,-0.0068,0.0027,0.0227,0.0254,0.0473,0.0386,0.0596,0.0565,0.0527,0.0645,0.0434,0.0505,0.0504,0.0503,0.0502,0.0501,0,-0.0062,-0.0124,-0.0191,-0.0261,-0.0302,-0.0334,-0.035,-0.0288,-0.0207,-0.0051,0.0065,0.0438,0.0536,0.062,0.0795,0.086,0.0848,0.0883,0.0881,0.0918,0.0741,0.081,0.0962,0.0962,0.0962,0.0962,0.0962,0.0962,-0.0044,-0.0094,-0.0142,-0.02,-0.0244,-0.0231,-0.0214,-0.0108,0.0033,0.0419,0.0782,0.0996,0.114,0.1044,0.1131,0.114,0.118,0.1122,0.1128,0.1024,0.0996,0.0969,0.1039,0.1237,0.1237,0.1371,0.1372,0.1373]}],[{"header":{"parameterUnit":"m.s-1","parameterCategory":2,"la1":30.2991,"la2":30.254,"lo1":-89.0895,"lo2":-89.0444,"dy":0.0017,"dx":0.0017,"nx":28,"ny":28,"refTime":"2025-03-12T09:00:00:Z","depth":"2","parameterNumber":2,"parameterNumberName":"U-component_of_CURRENTS"},"data":[0,0,0,0,0,0,0,0,0,0,0,0,0,0,0,0,0,0,0,0,0,0,0,0,0,0,0,0,0,0,0,0,0,0,0,0,0,0,0,0,0,0,0,0,0,0,0,0,0,0,0,0,0,0,0,0,0,0,-0.1673,-0.1675,0,-0.176,-0.176,-0.176,-0.1792,-0.1793,-0.1793,-0.1794,-0.179,-0.1789,-0.1789,0,0,0,0,0,0,0,0,0,0,0,0,0,-0.1527,-0.1529,-0.1673,-0.1675,-0.1677,-0.176,-0.176,-0.176,-0.1792,-0.1793,-0.1793,-0.1794,-0.179,-0.179,-0.1789,0,0,0,0,0,0,0,0,0,0,0,0,0,-0.1591,-0.1529,-0.1673,-0.1709,-0.1714,-0.176,-0.176,-0.176,-0.1792,-0.1793,-0.1794,-0.1794,-0.1791,-0.179,-0.1789,-0.1767,0,0,-0.1786,-0.1786,0,0,0,0,0,0,0,0,-0.1587,-0.1595,-0.1702,-0.1707,-0.1713,-0.1774,-0.1708,-0.1761,-0.1792,-0.1753,-0.1794,-0.1795,-0.1782,-0.1781,-0.1784,-0.1766,-0.1766,-0.1786,-0.1785,-0.1785,-0.1785,0,0,0,0,0,0,0,-0.1583,-0.1592,-0.1698,-0.1704,-0.1711,-0.1719,-0.1728,-0.1717,-0.1753,-0.1756,-0.1761,-0.1785,-0.1783,-0.1785,-0.1784,-0.1766,-0.1786,-0.1785,-0.1784,-0.1784,-0.1711,-0.171,0,0,0,0,0,0,-0.159,-0.1587,-0.1696,-0.1702,-0.1661,-0.1722,-0.1732,-0.1746,-0.1755,-0.1761,-0.1784,-0.1786,-0.1786,-0.1785,-0.1784,-0.175,-0.1785,-0.1784,-0.1784,-0.1713,-0.1711,-0.171,0,0,0,0,0,0,-0.1586,-0.1598,-0.1692,-0.1654,-0.1668,-0.1725,-0.174,-0.1748,-0.1769,-0.1779,-0.1781,-0.1802,-0.1787,-0.1786,-0.178,-0.175,-0.1784,-0.1783,-0.1714,-0.1712,-0.171,-0.1687,0,0,0,0,0,0,-0.1581,-0.1596,-0.1615,-0.1654,-0.1671,-0.1721,-0.174,-0.1749,-0.1786,-0.179,-0.1794,-0.1794,-0.1787,-0.1782,-0.178,-0.175,-0.1782,-0.1716,-0.1713,-0.1711,-0.1689,-0.1684,-0.168,0,0,0,0,0,-0.1576,-0.1606,-0.1614,-0.1629,-0.1692,-0.1722,-0.1729,-0.1766,-0.1786,-0.1789,-0.1793,-0.1795,-0.1763,-0.1781,-0.1778,-0.1747,-0.1717,-0.1714,-0.1711,-0.1691,-0.1685,-0.168,0,0,0,0,0,0,-0.1554,-0.1614,-0.1624,-0.1671,-0.1693,-0.1731,-0.1757,-0.1774,-0.1781,-0.1793,-0.1789,-0.1788,-0.1774,-0.1762,-0.1782,-0.1716,-0.1735,-0.1731,-0.172,-0.1714,-0.171,-0.1709,-0.1781,0,0,0,0,0,-0.1557,-0.16,-0.1633,-0.1674,-0.1684,-0.1718,-0.1741,-0.1762,-0.1779,-0.1786,-0.179,-0.178,-0.1755,-0.174,-0.1731,-0.1697,-0.1696,-0.167,-0.1665,-0.1661,-0.1657,-0.1624,-0.1616,-0.1699,-0.1699,-0.1699,0,0,-0.1568,-0.1606,-0.1633,-0.1674,-0.1697,-0.1691,-0.1731,-0.1771,-0.1766,-0.1781,-0.1781,-0.1779,-0.1748,-0.1714,-0.1702,-0.17,-0.164,-0.1657,-0.1654,-0.1652,-0.162,-0.1612,-0.1605,-0.1697,-0.1698,-0.1698,0,0,-0.1574,-0.1631,-0.164,-0.1653,-0.1693,-0.1709,-0.1719,-0.1754,-0.1768,-0.1765,-0.1768,-0.1748,-0.1726,-0.1687,-0.1661,-0.162,-0.1631,-0.1617,-0.1576,-0.1543,-0.1537,-0.1531,-0.1539,-0.1534,-0.1596,-0.1596,-0.1596,0,-0.157,-0.1584,-0.1646,-0.1637,-0.1645,-0.1707,-0.1683,-0.1707,-0.1738,-0.1725,-0.1762,-0.1708,-0.17,-0.1618,-0.1611,-0.1608,-0.1614,-0.1603,-0.1538,-0.1532,-0.1526,-0.1536,-0.1531,-0.1595,-0.1595,-0.1595,-0.1595,0,-0.1542,-0.1563,-0.1574,-0.1575,-0.159,-0.1599,-0.1626,-0.1641,-0.1672,-0.1675,-0.1646,-0.1645,-0.1602,-0.1591,-0.1593,-0.153,-0.1558,-0.1553,-0.1557,-0.1517,-0.153,-0.1525,-0.1593,-0.1593,-0.1594,-0.1594,0,0,-0.1508,-0.1538,-0.1542,-0.1523,-0.1556,-0.1558,-0.1558,-0.1543,-0.1534,-0.1559,-0.1523,-0.1491,-0.1514,-0.1488,-0.1488,-0.1461,-0.1443,-0.1495,-0.1494,-0.1512,-0.1408,-0.1289,-0.1273,-0.1434,-0.1432,-0.1431,-0.1441,0,-0.1451,-0.1414,-0.1447,-0.1416,-0.1397,-0.1441,-0.1433,-0.144,-0.1464,-0.1459,-0.1451,-0.1436,-0.1466,-0.1461,-0.1437,-0.1455,-0.1425,-0.1443,-0.1437,-0.1437,-0.1342,-0.126,-0.1161,-0.1148,-0.1437,-0.1436,-0.1435,0,-0.1397,-0.1383,-0.1332,-0.1329,-0.1322,-0.1314,-0.1305,-0.1308,-0.1319,-0.1339,-0.1325,-0.1353,-0.133,-0.1372,-0.1358,-0.1376,-0.1388,-0.1398,-0.1398,-0.1288,-0.1306,-0.123,-0.1128,-0.1427,-0.1428,-0.1428,-0.1429,0,-0.1327,-0.1306,-0.1262,-0.1259,-0.1261,-0.1244,-0.1246,-0.1262,-0.1265,-0.1276,-0.1287,-0.127,-0.1288,-0.1285,-0.1327,-0.1349,-0.1321,-0.1345,-0.124,-0.1235,-0.1145,-0.1132,-0.1305,-0.1305,-0.1305,-0.1305,-0.1305,0,-0.1251,-0.1227,-0.1232,-0.1205,-0.1158,-0.1191,-0.1162,-0.1166,-0.1194,-0.1191,-0.1233,-0.1235,-0.1272,-0.1274,-0.1299,-0.1247,-0.1291,-0.1212,-0.1204,-0.1134,-0.112,-0.1357,-0.1363,-0.1305,-0.1305,-0.1305,-0.1305,0,-0.1193,-0.1194,-0.1152,-0.1135,-0.1129,-0.1103,-0.1113,-0.1106,-0.1149,-0.1154,-0.1163,-0.1211,-0.1206,-0.1219,-0.1223,-0.1199,-0.1168,-0.1134,-0.1066,-0.1045,-0.1125,-0.1129,-0.1018,-0.1014,-0.101,-0.1006,-0.1004,0,-0.1158,-0.1133,-0.1098,-0.1072,-0.1065,-0.1047,-0.1043,-0.1075,-0.1086,-0.1137,-0.1134,-0.1141,-0.1123,-0.1074,-0.101,-0.0964,-0.1059,-0.0854,-0.0837,-0.1078,-0.1084,-0.1095,-0.1104,-0.0745,-0.0741,-0.0737,-0.0734,0,-0.1096,-0.1098,-0.1058,-0.0996,-0.0977,-0.0958,-0.0961,-0.0964,-0.1023,-0.1039,-0.1065,-0.1053,-0.0982,-0.0876,-0.0781,-0.0741,-0.0847,-0.0769,-0.1019,-0.0806,-0.0812,-0.0821,-0.0841,-0.0699,-0.0703,-0.0705,-0.0707,-0.0709,-0.1074,-0.1025,-0.0976,-0.0909,-0.0892,-0.0876,-0.0846,-0.0881,-0.0885,-0.091,-0.0956,-0.0921,-0.0873,-0.0665,-0.0579,-0.0491,-0.0567,-0.056,-0.0576,-0.0595,-0.0534,-0.0529,-0.0356,-0.0357,-0.0359,-0.036,-0.0361,0,-0.1022,-0.0963,-0.089,-0.0815,-0.0774,-0.0789,-0.0791,-0.0773,-0.0767,-0.0793,-0.0799,-0.0675,-0.0565,-0.0521,-0.0325,-0.0243,-0.027,-0.0225,-0.0305,-0.0337,-0.0365,-0.0298,-0.0055,-0.0054,-0.0054,-0.0053,0,0,-0.0988,-0.0888,-0.0817,-0.071,-0.0682,-0.0616,-0.0607,-0.0598,-0.0595,-0.0573,-0.056,-0.0608,-0.0551,-0.0377,-0.026,-0.0148,-0.025,-0.0101,-0.0341,-0.0472,-0.0501,-0.0539,-0.0465,0,0,0,0,0]},{"header":{"parameterUnit":"m.s-1","parameterCategory":2,"la1":30.2991,"la2":30.254,"lo1":-89.0895,"lo2":-89.0444,"dy":0.0017,"dx":0.0017,"nx":28,"ny":28,"refTime":"2025-03-12T09:00:00:Z","depth":"2","parameterNumber":3,"parameterNumberName":"V-component_of_CURRENTS"},"data":[0,0,0,0,0,0,0,0,0,0,0,0,0,0,0,0,0,0,0,0,0,0,0,0,0,0,0,0,0,0,0,0,0,0,0,0,0,0,0,0,0,0,0,0,0,0,0,0,0,0,0,0,0,0,0,0,0,0,-0.0233,-0.0231,0,-0.0067,-0.0065,-0.0064,0.0043,0.0044,0.0045,0.0046,0.0336,0.0343,0.0349,0,0,0,0,0,0,0,0,0,0,0,0,0,-0.0399,-0.0397,-0.0233,-0.0231,-0.0228,-0.0067,-0.0065,-0.0063,0.0043,0.0044,0.0045,0.0046,0.0334,0.0342,0.035,0,0,0,0,0,0,0,0,0,0,0,0,0,-0.0292,-0.0396,-0.0233,-0.0154,-0.0145,-0.0068,-0.0065,-0.0063,0.0042,0.0044,0.0045,0.0046,0.0331,0.0341,0.0351,0.0387,0,0,0.0383,0.0387,0,0,0,0,0,0,0,0,-0.0299,-0.0287,-0.0168,-0.0159,-0.0149,-0.0029,-0.0017,0.0095,0.0042,-0.0032,0.0046,0.0047,0.0227,0.0245,0.0268,0.0401,0.0413,0.0384,0.039,0.0394,0.0397,0,0,0,0,0,0,0,-0.0306,-0.0293,-0.017,-0.0165,-0.0154,-0.0106,-0.009,0.0004,0.0087,-0.0025,-0.0016,0.0006,0.0232,0.0257,0.0276,0.0417,0.0383,0.0393,0.0399,0.0403,0.062,0.062,0,0,0,0,0,0,-0.0325,-0.03,-0.0176,-0.0165,-0.0218,-0.0104,-0.0086,-0.0071,0.0084,0.0109,0.0005,0.0011,0.0239,0.0263,0.0286,0.0364,0.0394,0.0404,0.041,0.0621,0.062,0.062,0,0,0,0,0,0,-0.0329,-0.0316,-0.0182,-0.0226,-0.0205,-0.0103,-0.0086,-0.0069,-0.0015,0.0106,0.0133,0.0043,0.0241,0.0272,0.039,0.0375,0.0409,0.0418,0.0621,0.0621,0.062,0.0503,0,0,0,0,0,0,-0.0335,-0.0319,-0.0311,-0.0228,-0.0203,-0.014,-0.0087,-0.0066,-0.0004,0.0006,0.0148,0.0174,0.0244,0.0374,0.04,0.039,0.0426,0.0622,0.0621,0.062,0.0507,0.0498,0.0491,0,0,0,0,0,-0.0342,-0.0333,-0.0312,-0.0296,-0.0197,-0.014,-0.0124,-0.0047,-0.0003,0.0008,0.0117,0.0171,0.0386,0.0383,0.0414,0.0406,0.0622,0.0621,0.062,0.0511,0.05,0.0491,0,0,0,0,0,0,-0.0397,-0.0319,-0.0294,-0.0261,-0.0208,-0.012,-0.0091,-0.004,0.0052,0.0079,0.0191,0.0225,0.0318,0.0381,0.0375,0.0463,0.0504,0.0509,0.041,0.0401,0.0393,0.0356,0.0435,0,0,0,0,0,-0.041,-0.0376,-0.0309,-0.0278,-0.0257,-0.0173,-0.0135,-0.0085,0.0005,0.0047,0.0154,0.0255,0.0331,0.0384,0.0471,0.0535,0.057,0.0541,0.0533,0.0525,0.0515,0.0516,0.0506,0.0617,0.0617,0.0617,0,0,-0.0415,-0.0369,-0.0347,-0.0287,-0.0235,-0.0216,-0.0147,-0.0088,-0.0059,0.0068,0.0162,0.0249,0.0346,0.041,0.0454,0.0466,0.0521,0.0524,0.0517,0.0511,0.0514,0.0503,0.0493,0.0616,0.0616,0.0616,0,0,-0.0425,-0.038,-0.0367,-0.0334,-0.0266,-0.0223,-0.0207,-0.0112,-0.006,0.0034,0.0116,0.0186,0.0341,0.0373,0.0413,0.0412,0.0484,0.0449,0.0375,0.0376,0.0366,0.0357,0.0418,0.0416,0.0434,0.0434,0.0433,0,-0.0441,-0.0416,-0.0354,-0.0345,-0.0319,-0.0233,-0.0228,-0.0172,-0.0044,-0.0012,0.0055,0.0217,0.0306,0.0332,0.0334,0.0389,0.0431,0.0402,0.0361,0.0353,0.0347,0.0411,0.041,0.0428,0.0429,0.0429,0.043,0,-0.0454,-0.0434,-0.0422,-0.0388,-0.036,-0.0332,-0.0267,-0.0217,-0.0132,-0.0077,0.0004,0.0116,0.0197,0.0226,0.0296,0.0282,0.0344,0.0354,0.0376,0.0328,0.04,0.0401,0.042,0.0422,0.0423,0.0425,0,0,-0.0488,-0.0444,-0.0439,-0.0434,-0.0379,-0.0356,-0.0325,-0.0283,-0.0258,-0.015,-0.0119,-0.0013,0.0044,0.0091,0.0164,0.0169,0.0178,0.0244,0.0247,0.0289,0.0232,0.0248,0.0252,0.0182,0.0181,0.018,0.0312,0,-0.0518,-0.0517,-0.0488,-0.0484,-0.0478,-0.0421,-0.0402,-0.0353,-0.028,-0.0224,-0.0154,-0.0082,-0.001,0.0037,0.0046,0.0164,0.0172,0.0144,0.0287,0.0292,0.0297,0.0248,0.0227,0.0339,0.0313,0.0313,0.0314,0,-0.0546,-0.0536,-0.0549,-0.0527,-0.0522,-0.0516,-0.0479,-0.0449,-0.0387,-0.0327,-0.0281,-0.0197,-0.0147,-0.0084,0.0031,0.0019,0.011,0.0184,0.019,0.024,0.0307,0.038,0.0343,0.0316,0.0316,0.0316,0.0316,0,-0.059,-0.0578,-0.0589,-0.0581,-0.0551,-0.055,-0.053,-0.048,-0.0453,-0.0395,-0.0358,-0.0294,-0.022,-0.0142,0.0034,0.0037,0.0169,0.0186,0.0276,0.0282,0.0308,0.0316,0.0222,0.0221,0.0221,0.0221,0.022,0,-0.0627,-0.063,-0.0607,-0.0611,-0.0622,-0.0588,-0.0588,-0.0557,-0.0512,-0.0488,-0.0414,-0.0365,-0.0232,-0.0124,0.0002,0.0158,0.014,0.0256,0.0294,0.0272,0.0275,0.0286,0.0291,0.0226,0.0225,0.0224,0.0223,0,-0.0664,-0.0651,-0.066,-0.0644,-0.064,-0.0644,-0.0621,-0.0614,-0.0568,-0.0532,-0.0514,-0.0401,-0.0255,-0.0115,0.0054,0.0137,0.0267,0.0319,0.0317,0.0349,0.0396,0.0395,0.0426,0.0427,0.0428,0.0429,0.0429,0,-0.0684,-0.0691,-0.069,-0.0693,-0.0685,-0.0681,-0.0677,-0.0642,-0.0626,-0.0542,-0.0524,-0.0389,-0.0273,-0.0022,0.0138,0.033,0.0325,0.0403,0.0367,0.0372,0.0407,0.0404,0.0401,0.039,0.0391,0.0391,0.0391,0,-0.0719,-0.0717,-0.0722,-0.0731,-0.0733,-0.0738,-0.0724,-0.0723,-0.0669,-0.0629,-0.0538,-0.0445,-0.0195,0.001,0.024,0.0338,0.0364,0.0413,0.0404,0.0324,0.0343,0.0376,0.0374,0.0393,0.0393,0.0393,0.0393,0.0393,-0.074,-0.0749,-0.0755,-0.0765,-0.0772,-0.0782,-0.0794,-0.0763,-0.0739,-0.0645,-0.0556,-0.035,-0.0165,0.0198,0.0298,0.0405,0.0423,0.0448,0.0445,0.0443,0.0396,0.0413,0.0474,0.0474,0.0474,0.0474,0.0474,0,-0.0763,-0.0769,-0.0783,-0.0799,-0.0821,-0.0815,-0.0817,-0.0811,-0.0781,-0.0604,-0.0498,-0.0236,-0.0005,0.02,0.0376,0.0449,0.0421,0.0441,0.0399,0.0397,0.0396,0.0344,0.041,0.0409,0.0409,0.0409,0,0,-0.0771,-0.0789,-0.0796,-0.0836,-0.0851,-0.0876,-0.0884,-0.085,-0.073,-0.0561,-0.0343,-0.0128,0.0118,0.0222,0.0291,0.0366,0.0348,0.0353,0.0402,0.034,0.0337,0.0404,0.0324,0,0,0,0,0]}],[{"header":{"parameterUnit":"m.s-1","parameterCategory":2,"la1":30.2991,"la2":30.254,"lo1":-89.0895,"lo2":-89.0444,"dy":0.0017,"dx":0.0017,"nx":28,"ny":28,"refTime":"2025-03-12T09:00:00:Z","depth":"4","parameterNumber":2,"parameterNumberName":"U-component_of_CURRENTS"},"data":[0,0,0,0,0,0,0,0,0,0,0,0,0,0,0,0,0,0,0,0,0,0,0,0,0,0,0,0,0,0,0,0,0,0,0,0,0,0,0,0,0,0,0,0,0,0,0,0,0,0,0,0,0,0,0,0,0,0,-0.0652,-0.0652,0,-0.0676,-0.0676,-0.0677,-0.0709,-0.0709,-0.071,-0.071,-0.0774,-0.0775,-0.0776,0,0,0,0,0,0,0,0,0,0,0,0,0,-0.0619,-0.062,-0.0652,-0.0652,-0.0652,-0.0676,-0.0676,-0.0677,-0.0709,-0.0709,-0.071,-0.071,-0.0773,-0.0775,-0.0776,0,0,0,0,0,0,0,0,0,0,0,0,0,-0.0638,-0.062,-0.0652,-0.067,-0.0672,-0.0676,-0.0676,-0.0677,-0.0709,-0.0709,-0.071,-0.0711,-0.0773,-0.0775,-0.0777,-0.0775,0,0,-0.0783,-0.0783,0,0,0,0,0,0,0,0,-0.0637,-0.0639,-0.0667,-0.0669,-0.0671,-0.0689,-0.0688,-0.0711,-0.0708,-0.0696,-0.071,-0.0711,-0.0748,-0.0752,-0.0756,-0.0778,-0.0781,-0.0783,-0.0784,-0.0785,-0.0785,0,0,0,0,0,0,0,-0.0636,-0.0638,-0.0662,-0.0667,-0.067,-0.0672,-0.0676,-0.0693,-0.0719,-0.0697,-0.0699,-0.07,-0.075,-0.0754,-0.0758,-0.0782,-0.0783,-0.0784,-0.0786,-0.0786,-0.0849,-0.085,0,0,0,0,0,0,-0.0631,-0.0637,-0.0661,-0.0663,-0.0654,-0.0673,-0.0677,-0.0683,-0.0718,-0.0724,-0.0699,-0.0701,-0.075,-0.0755,-0.076,-0.081,-0.0785,-0.0787,-0.0788,-0.0849,-0.085,-0.085,0,0,0,0,0,0,-0.063,-0.0633,-0.066,-0.0649,-0.0653,-0.0672,-0.068,-0.0684,-0.0701,-0.072,-0.0726,-0.0714,-0.0751,-0.0757,-0.0796,-0.0811,-0.0787,-0.0789,-0.0848,-0.0849,-0.085,-0.0878,0,0,0,0,0,0,-0.0629,-0.0633,-0.0638,-0.0649,-0.0654,-0.0671,-0.0679,-0.0683,-0.0699,-0.0702,-0.0734,-0.074,-0.0752,-0.0793,-0.0798,-0.0813,-0.0791,-0.0848,-0.0849,-0.085,-0.0876,-0.0879,-0.0882,0,0,0,0,0,-0.0628,-0.0633,-0.0638,-0.0641,-0.066,-0.0671,-0.0674,-0.069,-0.0699,-0.0708,-0.0737,-0.0739,-0.0802,-0.0795,-0.0801,-0.0817,-0.0847,-0.0848,-0.085,-0.0875,-0.0879,-0.0882,0,0,0,0,0,0,-0.0621,-0.0637,-0.0643,-0.0653,-0.0664,-0.0677,-0.0688,-0.0695,-0.0723,-0.0734,-0.0752,-0.076,-0.0795,-0.0801,-0.0793,-0.0836,-0.0822,-0.0824,-0.084,-0.0843,-0.0846,-0.0847,-0.0792,0,0,0,0,0,-0.062,-0.0632,-0.0643,-0.0653,-0.0662,-0.0676,-0.0684,-0.0694,-0.0717,-0.073,-0.0753,-0.0777,-0.08,-0.082,-0.0836,-0.0866,-0.0856,-0.0877,-0.088,-0.0882,-0.0886,-0.0891,-0.0895,-0.0854,-0.0854,-0.0854,0,0,-0.0621,-0.063,-0.0637,-0.0652,-0.0667,-0.0685,-0.0684,-0.0702,-0.0721,-0.0733,-0.0774,-0.0788,-0.0809,-0.0842,-0.0858,-0.0854,-0.0885,-0.0884,-0.0886,-0.0889,-0.0893,-0.0897,-0.09,-0.0855,-0.0855,-0.0855,0,0,-0.0625,-0.0638,-0.065,-0.0664,-0.0683,-0.0694,-0.0701,-0.0722,-0.074,-0.0772,-0.0787,-0.0816,-0.0848,-0.0871,-0.0884,-0.0913,-0.0897,-0.0913,-0.0937,-0.0942,-0.0945,-0.0948,-0.0925,-0.0926,-0.0919,-0.0919,-0.0919,0,-0.0626,-0.0642,-0.0655,-0.0672,-0.0687,-0.0702,-0.0722,-0.074,-0.077,-0.079,-0.079,-0.0845,-0.0862,-0.0907,-0.0918,-0.0922,-0.0909,-0.0924,-0.0946,-0.0949,-0.0951,-0.0927,-0.0928,-0.0921,-0.0921,-0.0921,-0.092,0,-0.0639,-0.0657,-0.0668,-0.0699,-0.0717,-0.0735,-0.0761,-0.0786,-0.0805,-0.0822,-0.0865,-0.0888,-0.092,-0.0928,-0.0936,-0.0966,-0.0944,-0.0945,-0.0937,-0.0957,-0.093,-0.093,-0.0923,-0.0922,-0.0922,-0.0922,0,0,-0.0625,-0.0669,-0.0674,-0.0695,-0.0733,-0.0748,-0.0789,-0.0826,-0.0855,-0.0881,-0.0915,-0.0956,-0.0962,-0.0978,-0.0988,-0.0997,-0.1,-0.0981,-0.098,-0.0957,-0.0988,-0.0908,-0.0899,-0.1004,-0.1005,-0.1005,-0.0956,0,-0.0632,-0.0665,-0.069,-0.0729,-0.075,-0.0785,-0.0822,-0.0859,-0.0888,-0.0923,-0.095,-0.0982,-0.0983,-0.0998,-0.101,-0.1005,-0.1004,-0.1012,-0.0972,-0.097,-0.0897,-0.0899,-0.1007,-0.0955,-0.0955,-0.0955,-0.0955,0,-0.0632,-0.0656,-0.0692,-0.0748,-0.0763,-0.0792,-0.0853,-0.0886,-0.0939,-0.0962,-0.0998,-0.1012,-0.1042,-0.103,-0.1033,-0.1036,-0.1015,-0.1003,-0.1,-0.0918,-0.0891,-0.0935,-0.0955,-0.0955,-0.0955,-0.0955,-0.0955,0,-0.0604,-0.0658,-0.0687,-0.0704,-0.0768,-0.0799,-0.0838,-0.0897,-0.0929,-0.0983,-0.1002,-0.1039,-0.1049,-0.1043,-0.1021,-0.1028,-0.1001,-0.1007,-0.0911,-0.0904,-0.098,-0.0977,-0.0999,-0.0999,-0.0999,-0.1,-0.1,0,-0.0591,-0.0617,-0.0677,-0.0692,-0.0736,-0.0788,-0.0839,-0.0883,-0.094,-0.0969,-0.1015,-0.1026,-0.1052,-0.1041,-0.1021,-0.0955,-0.0999,-0.0908,-0.089,-0.0989,-0.0989,-0.0978,-0.0976,-0.0998,-0.0998,-0.0998,-0.0999,0,-0.0553,-0.0592,-0.0628,-0.0697,-0.0721,-0.0752,-0.0832,-0.0865,-0.0923,-0.0959,-0.0973,-0.1015,-0.0989,-0.099,-0.0969,-0.0938,-0.0896,-0.086,-0.0946,-0.0933,-0.0794,-0.0794,-0.0749,-0.0746,-0.0743,-0.0741,-0.0739,0,-0.0538,-0.055,-0.0617,-0.0641,-0.0674,-0.073,-0.0766,-0.0843,-0.0874,-0.0936,-0.094,-0.0942,-0.0953,-0.085,-0.0865,-0.0809,-0.0801,-0.078,-0.0808,-0.0784,-0.077,-0.0775,-0.0779,-0.0735,-0.0734,-0.0734,-0.0733,0,-0.0506,-0.053,-0.0558,-0.06,-0.0641,-0.0686,-0.0742,-0.0757,-0.0833,-0.0891,-0.0872,-0.0852,-0.0815,-0.0787,-0.0743,-0.0713,-0.0801,-0.0752,-0.0758,-0.0784,-0.0766,-0.0756,-0.0763,-0.0724,-0.0725,-0.0726,-0.0726,0,-0.048,-0.0488,-0.0522,-0.0556,-0.0601,-0.0624,-0.0667,-0.0694,-0.0727,-0.0797,-0.078,-0.0777,-0.08,-0.0733,-0.0697,-0.0655,-0.0647,-0.064,-0.0652,-0.0662,-0.0657,-0.0623,-0.0514,0,0,0,0,0,-0.0454,-0.0455,-0.048,-0.0513,-0.0551,-0.0574,-0.0642,-0.0685,-0.0752,-0.0713,-0.0746,-0.0704,-0.0651,-0.0651,-0.0584,-0.0654,-0.0651,-0.0576,-0.0651,-0.0672,-0.0683,-0.0686,0,0,0,0,0,0,-0.0437,-0.0453,-0.0459,-0.0462,-0.0471,-0.0508,-0.0544,-0.0594,-0.058,-0.0643,-0.0608,-0.0653,-0.0601,-0.0657,-0.0561,-0.0561,-0.0593,-0.0578,-0.0576,-0.0666,-0.0676,-0.0684,-0.0691,0,0,0,0,0]},{"header":{"parameterUnit":"m.s-1","parameterCategory":2,"la1":30.2991,"la2":30.254,"lo1":-89.0895,"lo2":-89.0444,"dy":0.0017,"dx":0.0017,"nx":28,"ny":28,"refTime":"2025-03-12T09:00:00:Z","depth":"4","parameterNumber":3,"parameterNumberName":"V-component_of_CURRENTS"},"data":[0,0,0,0,0,0,0,0,0,0,0,0,0,0,0,0,0,0,0,0,0,0,0,0,0,0,0,0,0,0,0,0,0,0,0,0,0,0,0,0,0,0,0,0,0,0,0,0,0,0,0,0,0,0,0,0,0,0,-0.0411,-0.0411,0,-0.0389,-0.0389,-0.0388,-0.0367,-0.0367,-0.0367,-0.0368,-0.0326,-0.0325,-0.0324,0,0,0,0,0,0,0,0,0,0,0,0,0,-0.0393,-0.0393,-0.0411,-0.0411,-0.0411,-0.039,-0.0389,-0.0388,-0.0367,-0.0367,-0.0367,-0.0368,-0.0327,-0.0325,-0.0324,0,0,0,0,0,0,0,0,0,0,0,0,0,-0.0386,-0.0393,-0.0411,-0.0401,-0.04,-0.039,-0.0389,-0.0388,-0.0367,-0.0367,-0.0368,-0.0368,-0.0327,-0.0325,-0.0324,-0.0311,0,0,-0.0318,-0.0318,0,0,0,0,0,0,0,0,-0.0386,-0.0386,-0.0402,-0.0401,-0.04,-0.0384,-0.0367,-0.0363,-0.0367,-0.0376,-0.0368,-0.0368,-0.0346,-0.0343,-0.0334,-0.031,-0.0308,-0.0318,-0.0317,-0.0316,-0.0316,0,0,0,0,0,0,0,-0.0387,-0.0387,-0.0399,-0.0402,-0.0401,-0.0383,-0.0382,-0.0366,-0.0358,-0.0375,-0.0375,-0.0378,-0.0345,-0.0335,-0.0333,-0.0307,-0.0318,-0.0317,-0.0316,-0.0315,-0.0285,-0.0286,0,0,0,0,0,0,-0.0399,-0.0387,-0.04,-0.0399,-0.0397,-0.0384,-0.0383,-0.0387,-0.0358,-0.0355,-0.0378,-0.0377,-0.0338,-0.0335,-0.0331,-0.0324,-0.0316,-0.0315,-0.0314,-0.0285,-0.0285,-0.0286,0,0,0,0,0,0,-0.0398,-0.04,-0.0401,-0.0395,-0.0394,-0.0385,-0.0389,-0.0386,-0.0384,-0.0361,-0.0357,-0.038,-0.0338,-0.0334,-0.0321,-0.0322,-0.0314,-0.0312,-0.0285,-0.0285,-0.0285,-0.0305,0,0,0,0,0,0,-0.0398,-0.04,-0.0406,-0.0396,-0.0395,-0.0403,-0.0389,-0.0386,-0.0387,-0.0386,-0.0361,-0.0357,-0.0338,-0.0324,-0.0319,-0.032,-0.0311,-0.0284,-0.0285,-0.0285,-0.0304,-0.0306,-0.0308,0,0,0,0,0,-0.0397,-0.0404,-0.0407,-0.0408,-0.0405,-0.0404,-0.0402,-0.0392,-0.0387,-0.0389,-0.037,-0.0358,-0.0323,-0.0322,-0.0317,-0.0317,-0.0284,-0.0285,-0.0285,-0.0303,-0.0306,-0.0308,0,0,0,0,0,0,-0.0402,-0.0403,-0.0405,-0.0414,-0.0415,-0.0402,-0.0403,-0.0398,-0.0384,-0.0382,-0.0358,-0.0352,-0.0343,-0.0329,-0.0329,-0.0311,-0.0303,-0.0303,-0.0319,-0.0321,-0.0323,-0.0314,-0.031,0,0,0,0,0,-0.0407,-0.0413,-0.0413,-0.0423,-0.0423,-0.0415,-0.0414,-0.041,-0.0398,-0.0392,-0.0375,-0.0357,-0.034,-0.0331,-0.0316,-0.0304,-0.0268,-0.0302,-0.0304,-0.0306,-0.0296,-0.0236,-0.0231,-0.0287,-0.0287,-0.0287,0,0,-0.0417,-0.0416,-0.0422,-0.0425,-0.0422,-0.0424,-0.0414,-0.0417,-0.0415,-0.039,-0.038,-0.0364,-0.034,-0.0326,-0.0321,-0.0315,-0.0274,-0.0306,-0.0308,-0.0297,-0.0236,-0.023,-0.0225,-0.0288,-0.0288,-0.0288,0,0,-0.0431,-0.0434,-0.0441,-0.0441,-0.0443,-0.0436,-0.0441,-0.0433,-0.0426,-0.0419,-0.0398,-0.0378,-0.0361,-0.0335,-0.0321,-0.0323,-0.0288,-0.033,-0.0327,-0.0269,-0.0263,-0.0258,-0.0217,-0.0207,-0.0327,-0.0327,-0.0327,0,-0.044,-0.0449,-0.0445,-0.0448,-0.045,-0.0444,-0.0451,-0.0441,-0.0431,-0.042,-0.0421,-0.0374,-0.0359,-0.0324,-0.0328,-0.0325,-0.0293,-0.032,-0.0269,-0.0263,-0.0257,-0.0216,-0.0205,-0.0328,-0.0328,-0.0328,-0.0328,0,-0.0455,-0.0464,-0.0468,-0.0469,-0.0471,-0.0476,-0.0467,-0.0463,-0.0456,-0.0441,-0.0414,-0.0383,-0.0351,-0.035,-0.0341,-0.0296,-0.0288,-0.028,-0.0261,-0.0252,-0.021,-0.0199,-0.033,-0.0329,-0.0329,-0.0329,0,0,-0.0467,-0.0477,-0.0479,-0.0485,-0.0482,-0.0485,-0.048,-0.0468,-0.0457,-0.0438,-0.0412,-0.0382,-0.0359,-0.0342,-0.0321,-0.0275,-0.0216,-0.0265,-0.0261,-0.0219,-0.0096,-0.0104,-0.0092,-0.0196,-0.0194,-0.0193,-0.0088,0,-0.048,-0.0494,-0.0493,-0.0508,-0.0514,-0.0505,-0.05,-0.0487,-0.0467,-0.044,-0.0396,-0.0368,-0.0358,-0.0341,-0.0292,-0.0236,-0.0185,-0.0246,-0.0115,-0.0111,-0.0114,-0.0079,-0.0186,-0.0079,-0.0077,-0.0075,-0.0073,0,-0.049,-0.0498,-0.0517,-0.0526,-0.0527,-0.0534,-0.0519,-0.0513,-0.047,-0.0452,-0.0404,-0.037,-0.0304,-0.0298,-0.0174,-0.0214,-0.0155,-0.0109,-0.0103,-0.0092,-0.0097,-0.0087,-0.0052,-0.0053,-0.0055,-0.0057,-0.0058,0,-0.0498,-0.0514,-0.0531,-0.0534,-0.0541,-0.0546,-0.0546,-0.0517,-0.0506,-0.0452,-0.043,-0.0348,-0.0303,-0.0213,-0.0124,-0.0143,0.0016,0.0004,0.0057,0.0056,0.0041,0.0034,0.0106,0.0106,0.0106,0.0106,0.0106,0,-0.0504,-0.052,-0.054,-0.0549,-0.0566,-0.0563,-0.0565,-0.055,-0.0517,-0.0491,-0.0435,-0.0384,-0.0278,-0.0181,-0.0105,0.0015,0.0039,0.0073,0.0093,0.0026,0.0016,0.0048,0.004,0.011,0.0109,0.0108,0.0107,0,-0.0511,-0.0524,-0.0548,-0.0565,-0.0574,-0.0585,-0.0593,-0.0586,-0.0552,-0.0512,-0.0494,-0.0397,-0.0266,-0.0156,-0.0002,0.004,0.0153,0.019,0.0111,0.0122,0.0146,0.0136,0.0259,0.0259,0.026,0.0261,0.0261,0,-0.0515,-0.0529,-0.0564,-0.0582,-0.0595,-0.0613,-0.0624,-0.0607,-0.0593,-0.0511,-0.0487,-0.036,-0.0283,-0.0065,0.0038,0.0198,0.0209,0.0251,0.0198,0.016,0.0167,0.0155,0.0144,0.0262,0.0262,0.0263,0.0263,0,-0.0522,-0.0541,-0.0559,-0.0599,-0.0623,-0.0643,-0.0652,-0.0642,-0.0604,-0.0572,-0.0457,-0.0344,-0.0195,-0.005,0.0078,0.0186,0.0212,0.0258,0.0256,0.0207,0.0166,0.0169,0.0158,0.0265,0.0265,0.0265,0.0264,0,-0.0529,-0.0545,-0.0577,-0.0608,-0.0643,-0.0661,-0.0664,-0.0631,-0.0608,-0.0515,-0.0471,-0.0312,-0.0217,-0.0053,0.0066,0.0171,0.0181,0.018,0.0182,0.0181,0.0115,0.0049,0.0146,0,0,0,0,0,-0.0531,-0.0552,-0.0584,-0.0619,-0.0655,-0.0676,-0.0678,-0.0669,-0.0627,-0.0546,-0.0506,-0.0361,-0.0167,-0.008,0.0028,0.0056,0.018,0.0179,0.0174,0.0278,0.0275,0.021,0,0,0,0,0,0,-0.0534,-0.0566,-0.0581,-0.0625,-0.0653,-0.0689,-0.0691,-0.0663,-0.0609,-0.0547,-0.0433,-0.0365,-0.0169,-0.0222,0.0023,0.0056,0.0058,0.0277,0.0278,0.028,0.0277,0.0275,0.0207,0,0,0,0,0]}]]